OpenBCM V1.08-5-g2f4a (Linux)

Packet Radio Mailbox

IZ3LSV

[San Dona' di P. JN]

 Login: GUEST





  
I0OJJ  > KEPS     28.09.25 01:45l 313 Lines 14851 Bytes #143 (0) @ AMSAT
BID : ORB25271.1
Read: GUEST
Subj: 2Line Orbital Elements 25271.AMSAT
Path: IZ3LSV<IK6IHL<IK7NXU<HB9ON<DK0WUE<PD0LPM<IR0AAB<I0OJJ
Sent: 250928/0025z @:I0OJJ.ITA.EU [Rome] obcm1.08-11-2-gbfe9
From: I0OJJ @ I0OJJ.ITA.EU (Gustavo)
To:   KEPS @ AMSAT
X-Info: This message was generated automatically


QST de W1STR

AMSAT Orbital Elements for Amateur Satellites in TLE Format
From Orbital Analysis Office
New England Sci-Tech STEM Education Center
Natick MA September 28, 2025
To all radio amateurs


These element sets describe the orbits of various satellites 
in use by the amateur radio community. For details see:
www.amsat.org/keplerian-elements-formats/

A daily update of element sets is available at:
www.amsat.org/tle/daily-bulletin.txt
or without bulletin text:
www.amsat.org/tle/dailytle.txt


AO-07
1 07530U 74089B   25270.61971047 -.00000048  00000-0 -74049-5 0  9997
2 07530 101.9986 276.0721 0011910 272.7387 202.4334 12.53691819327616
UO-11
1 14781U 84021B   25270.43480675  .00003241  00000-0  34394-3 0  9995
2 14781  97.7684 234.7220 0007211 345.7652  14.3362 14.89729276217999
AO-27
1 22825U 93061C   25270.14775552  .00000246  00000-0  11079-3 0  9993
2 22825  98.7253 332.1918 0009027 146.2043 213.9716 14.30834038669385
FO-29
1 24278U 96046B   25270.54720207  .00000043  00000-0  77782-4 0  9993
2 24278  98.5561 149.8816 0350797  57.7162 305.7456 13.53254818437649
NOAA-15
1 25338U 98030A   25270.54447429  .00000330  00000-0  15321-3 0  9997
2 25338  98.5307 293.0073 0010990  42.3119 317.8908 14.27023371423834
GO-32
1 25397U 98043D   25270.55973766  .00000218  00000-0  11445-3 0  9993
2 25397  98.9834 252.0388 0000364 213.8556 146.2599 14.24343513413947
ISS
1 25544U 98067A   25269.92065904  .00016416  00000-0  30111-3 0  9996
2 25544  51.6332 162.8128 0001049 155.2675 204.8364 15.49415038530943
NO-44
1 26931U 01043C   25270.17850943  .00000496  00000-0  21639-3 0  9995
2 26931  67.0509 204.4572 0007129 274.5701  85.4586 14.31788204252798
SO-50
1 27607U 02058C   25270.22507063  .00003896  00000-0  48944-3 0  9996
2 27607  64.5535 222.0017 0067206 311.1341  48.3975 14.81958826225479
CO-55
1 27844U 03031E   25270.57080448  .00000703  00000-0  32466-3 0  9998
2 27844  98.6788 277.4442 0008761 223.4963 136.5526 14.24081326154294
CO-57
1 27848U 03031J   25270.50069703  .00000589  00000-0  27880-3 0  9992
2 27848  98.6818 277.2968 0008459 243.2971 116.7342 14.23403871154003
RS-22
1 27939U 03042A   25270.55302787  .00002460  00000-0  39416-3 0  9990
2 27939  98.3377  82.7476 0011882  26.8583  43.3986 14.72631723176884
CO-58
1 28895U 05043F   25269.95156558  .00003539  00000-0  57909-3 0  9995
2 28895  98.2659  55.7903 0013700 323.8374  36.1905 14.71403753 63023
CO-65
1 32785U 08021C   25270.57927061  .00009543  00000-0  66503-3 0  9993
2 32785  97.7992 242.7084 0009062 185.6319 174.4807 15.05611165945625
CO-66
1 32791U 08021J   25270.51481528  .00023755  00000-0  10535-2 0  9991
2 32791  97.7388 253.2713 0005611 125.0309 235.1453 15.21583236947191
RS-30
1 32953U 08025A   25270.65818259  .00000028  00000-0  13039-3 0  9996
2 32953  82.5056 158.7415 0019031 162.1679 198.0073 12.43168416787070
NOAA-19
1 33591U 09005A   25270.49620212  .00000221  00000-0  14153-3 0  9999
2 33591  98.9867 335.7643 0014561  56.1573 304.0983 14.13411965857377
SRMSAT
1 37841U 11058D   25270.11635913  .00000588  00000-0  17564-3 0  9990
2 37841  19.9711 211.6815 0011810 188.9736 291.0816 14.11470126720609
ZACUBE-1
1 39417U 13066B   25270.46614605  .00010403  00000-0  87417-3 0  9996
2 39417  97.7912 227.0278 0044455  46.0841 314.4037 14.97711545641359
Delfi-N3xt
1 39428U 13066N   25270.36751435  .00016170  00000-0  15795-2 0  9996
2 39428  97.8281 186.8487 0082594   0.1396 359.9831 14.89893788635414
GOMX-1
1 39430U 13066Q   25270.57873449  .00003942  00000-0  61086-3 0  9990
2 39430  97.6699 122.4585 0130874 199.6684 159.9448 14.68072482631361
LO-74
1 39440U 13066AA  25270.38633723  .00006728  00000-0  66576-3 0  9993
2 39440  97.8571 214.2825 0061036 175.8092 184.3650 14.90794553637797
AO-73
1 39444U 13066AE  25269.46450668  .00016942  00000-0  12090-2 0  9999
2 39444  97.7929 231.9578 0041558  21.5220 338.7741 15.03899322639945
DTUSAT-2
1 40030U 14033W   25270.50437018  .00013667  00000-0  84759-3 0  9991
2 40030  98.0676 247.8185 0010560  56.7107 303.5131 15.09818305612979
EO-80
1 40032U 14033Y   25270.38623431  .00012702  00000-0  78661-3 0  9999
2 40032  98.0562 247.1961 0008215   6.2394 353.8934 15.09910107612930
LILACSAT-2
1 40908U 15049K   25270.60912163  .00019193  00000-0  45734-3 0  9993
2 40908  97.5015 293.7791 0010528 119.6229 240.6068 15.41575872555167
IO-86
1 40931U 15052B   25151.18580175  .00001241  00000-0  78118-4 0  9996
2 40931   6.0006  24.0987 0012733 338.8432  21.1169 14.78805930523159
Horyu-4
1 41340U 16012D   25269.93862383  .00046449  00000-0  10344-2 0  9999
2 41340  30.9942 113.9307 0004706 109.8574 250.2581 15.42352678529659
Lapan A3
1 41603U 16040E   25270.62238770  .00006674  00000-0  22743-3 0  9990
2 41603  97.1428 270.9916 0009191 229.0084 131.0364 15.30656489514618
CAS-2T
1 41847U 16066G   25270.26162119  .00003244  00000-0  46812-3 0  9994
2 41847  98.4106 343.7436 0344639 206.4196 151.9062 14.43767675466843
CAS-4B
1 42759U 17034B   25270.52751249  .00412173  72040-4  12287-2 0  9990
2 42759  42.9999  17.3231 0023094 352.4803   7.5723 15.91135193459911
CAS-4A
1 42761U 17034D   25270.65483721  .00547398  13272-3  11931-2 0  9998
2 42761  43.0022  11.4897 0022847 359.6318   0.4539 15.96922297459978
TechnoSat
1 42829U 17042E   25270.36413092  .00005879  00000-0  44615-3 0  9995
2 42829  97.4005  73.9372 0016726 271.8037  88.1273 15.02461606447200
AO-91
1 43017U 17073E   25270.18840765  .00014526  00000-0  71299-3 0  9997
2 43017  97.5055 138.2163 0167940 152.2268 208.8054 15.06568372425703
S-Net D
1 43186U 18014G   25270.26826089  .00009492  00000-0  54155-3 0  9990
2 43186  97.5486 172.0528 0008080 195.6346 164.4636 15.12942256418952
S-Net B
1 43187U 18014H   25270.27513045  .00009773  00000-0  55771-3 0  9994
2 43187  97.5492 172.0371 0008901 191.8365 168.2658 15.12919535418957
S-Net A
1 43188U 18014J   25270.26825789  .00009470  00000-0  54016-3 0  9990
2 43188  97.5500 172.1950 0008744 192.0040 168.0984 15.12947615418950
S-Net C
1 43189U 18014K   25270.27780780  .00009862  00000-0  56265-3 0  9996
2 43189  97.5516 172.2372 0010442 186.5225 173.5872 15.12914230417502
Ten-Koh
1 43677U 18084G   25269.93819360  .00004592  00000-0  36368-3 0  9990
2 43677  98.0787  86.5309 0006782 248.1895 111.8606 15.01097368376648
PO-101
1 43678U 18084H   25270.62904373  .00004387  00000-0  36866-3 0  9993
2 43678  98.1073  91.0351 0008054 279.6778  80.3533 14.98834642376861
QO-100
1 43700U 18090A   25270.56483219  .00000149  00000-0  00000-0 0  9990
2 43700   0.0138 138.9450 0001404  78.3569  18.4614  1.00274013 25048
MinXSS-2
1 43758U 18099A   25270.13680519  .00032840  00000-0  11478-2 0  9993
2 43758  97.4897 336.7156 0012054 128.0759 232.1571 15.29418651373699
AO-95
1 43770U 18099N   25270.06373545  .00016947  00000-0  80441-3 0  9994
2 43770  97.4792 327.0094 0010333 182.8384 177.2794 15.19275844373163
SNUSat 2
1 43782U 18099AA  25270.09135018  .00014554  00000-0  75352-3 0  9998
2 43782  97.4470 322.8680 0012953 130.4485 229.7880 15.16243193373083
SnugLite
1 43784U 18099AC  25270.13534364  .00017278  00000-0  81228-3 0  9997
2 43784  97.4287 322.7211 0004820 123.3949 236.7748 15.19640865373261
ITASat 1
1 43786U 18099AE  25270.09295127  .00012440  00000-0  68006-3 0  9990
2 43786  97.4444 322.0422 0014082 181.6875 178.4312 15.14340243373026
EAGLET 1
1 43790U 18099AJ  25270.06233891  .00007343  00000-0  45506-3 0  9998
2 43790  97.4642 321.5780 0012298 165.9723 194.1851 15.09985099372587
ESEO
1 43792U 18099AL  25270.13326680  .00003875  00000-0  29158-3 0  9998
2 43792  97.4368 313.4093 0013198 146.4542 213.7523 15.03023533372274
JO-97
1 43803U 18099AX  25270.11842868  .00023239  00000-0  97527-3 0  9991
2 43803  97.4537 328.3248 0008524 119.0834 241.1257 15.23442860373437
Suomi 100
1 43804U 18099AY  25269.73033777  .00018071  00000-0  82600-3 0  9993
2 43804  97.4603 326.8945 0013197 124.9862 235.2614 15.20535322373273
ISAT
1 43879U 18111D   25270.29765789  .00039320  00000-0  11664-2 0  9999
2 43879  97.5869 187.3911 0009103 149.9208 210.2559 15.34674771370495
UWE-4
1 43880U 18111E   25270.20840718  .00028304  00000-0  98983-3 0  9998
2 43880  97.5811 184.9294 0011174 170.1630 189.9830 15.29441747370366
Sparrow
1 43881U 18111F   25270.31184467  .00044311  00000-0  12489-2 0  9995
2 43881  97.6040 190.7479 0005723 175.0469 185.0832 15.36278680370607
Prox-1
1 44339U 19036A   25270.51212178  .00018975  00000-0  22818-2 0  9998
2 44339  23.9964  58.5088 0006060 249.3008 110.6840 14.82343754334337
Taurus 1
1 44530U 19059C   25270.58067829  .00013311  00000-0  23641-2 0  9998
2 44530  98.6197  55.3699 0009179  56.8819 303.3264 14.67289230320062
Duchifat 3
1 44854U 19089C   25270.52754809  .00135996  00000-0  16259-2 0  9996
2 44854  36.9389  10.6976 0005998  97.2339 262.9104 15.59619583320100
TO-108
1 44881U 19093C   25270.60921809  .00002038  00000-0  24001-3 0  9991
2 44881  97.7839 343.9239 0012682 226.3632 133.6532 14.85827602312413
FloripaSat 1
1 44885U 19093G   25270.62247000  .00010060  00000-0  81851-3 0  9991
2 44885  97.8130 358.5174 0009539 200.2261 159.8585 14.99714574313235
RS-44
1 44909U 19096E   25270.16358575  .00000028  00000-0  62238-4 0  9992
2 44909  82.5238 154.4943 0218281  39.5364 322.1432 12.79743917268708
UPMSat 2
1 46276U 20061E   25270.21808497  .00485652  10268-3  10183-2 0  9994
2 46276  97.2281 349.8542 0003932 234.0541 126.0373 15.98951523282762
SALSAT
1 46495U 20068K   25270.37064973  .00013250  00000-0  54260-3 0  9990
2 46495  97.8728 253.6576 0012534 133.7663 226.4613 15.24370569275245
